Simultaneous Nadir Overpasses (SNOs) Predictions

Prediction of SNOs between METOP-A and TERRA Satellite Orbit:

Table of predicted SNOs for the next 14.0 days since TLE Epoch: 9/25/2021
Index Date (METOP-A) Time (METOP-A) Lat,Lon (METOP-A) SZA (METOP-A ) Date (TERRA) Time (TERRA) Lat,Lon (TERRA) SZA (TERRA ) Distance(km) Time Diff (sec)
1 09/25/2021 05:09:34 81.27, 147.17 84.92 09/25/2021 05:10:03 81.26, 147.29 84.94 2.40 29
2 09/25/2021 06:00:14 -81.26, -45.21 95.04 09/25/2021 05:59:30 -81.26, -45.17 95.06 0.88 44
3 09/28/2021 00:43:52 81.26,-146.07 86.07 09/28/2021 00:44:14 81.27,-146.22 86.07 2.64 22
4 09/28/2021 01:34:33 -81.26, 21.19 93.93 09/28/2021 01:33:41 -81.26, 21.35 93.94 2.73 52
5 09/30/2021 20:18:12 81.26, -79.71 87.17 09/30/2021 20:18:26 81.27, -79.78 87.18 1.58 14
6 09/30/2021 21:08:53 -81.26, 87.57 92.82 09/30/2021 21:07:54 -81.24, 87.45 92.88 2.74 59
7 10/03/2021 15:52:32 81.26, -13.37 88.27 10/03/2021 15:52:38 81.26, -13.39 88.28 0.90 6
8 10/03/2021 16:43:13 -81.26, 153.94 91.72 10/03/2021 16:42:06 -81.24, 153.87 91.77 2.15 67
9 10/06/2021 10:36:12 -81.26,-114.58 90.67 10/06/2021 10:37:24 -81.26,-114.67 90.66 1.75 72
10 10/06/2021 11:26:52 81.26, 52.95 89.36 10/06/2021 11:26:50 81.26, 52.95 89.36 0.13 2



Historial Predications of SNOs between METOP-A and TERRA
